Погода в Горном

Россия / Краснодарский край     44°16′50″N   39°16′39″E
темп.,
°C
ветер,
м/с
пор.,
м/с
влажн.,
%
обл.,
%
осадки,
мм/ч
давл.,
гПа
погр.,
м
6 мая, чт
чт600:00+7юв11905 0.0 101511
03:00+7вюв1190100 0.0 101410
06:00+9вюв11815 0.0 101313
09:00+17зюз124957 0.0 1012706
12:00+20ююз483756 0.0 10111426
15:00+20юз4638100 0.0 10111073
18:00+17зюз1167100 0.0 101227
21:00+12юв0075100 0.0 101310
7 мая, пт
пт700:00+11ююз117414 0.0 101412
03:00+8ююз22710 0.0 101524
06:00+8ююз227557 0.0 101741
09:00+16ююз48654 0.0 1017904
12:00+18ююз575115 0.0 10181093
15:00+18юз475293 0.0 1018861
18:00+15юз23685 0.0 1018383
21:00+9юв11945 0.0 101911
8 мая, сб
сб800:00+9ююв11925 0.0 101814
03:00+9юв118527 0.0 101714
06:00+10ююв1181100 0.0 101624
09:00+19ю1348100 0.0 1014585
12:00+22юз2534100 0.0 10131116
15:00+22юз353296 0.0 10131167
18:00+19ююз1157100 0.0 101213
21:00+13юв225719 0.0 101218
9 мая, вс
вс900:00+12ююв2256100 0.0 101017
03:00+11юз2284100 0.0 101153
06:00+11ю31298100 2.6 1010808
09:00+11ююз31198100 6.9 1012861
12:00+6ссз3798100 10.9 1017643
15:00+5ссв2697100 12.4 10211037
18:00+5всв1898100 0.8 1024956
21:00+4ссв3109770 1.5 1027891
10 мая, пн
пн1000:00+3св119595 0.0 102624
03:00+4всв1193100 0.3 102629
06:00+5вюв1297100 0.1 102572
09:00+9с247970 0.6 1024837
12:00+13ссз234299 0.3 10232148
15:00+10сз3472100 0.8 10231079
18:00+7ссз2486100 0.5 1024548
21:00+5ю1293100 0.7 102461